Location: Clanezzo
(45.7500°N, 9.6000°E)
Time: 08:44:12
(UTC+00:00)

CAS-4A - Visible Passes

Search period start: 04 July 2022 00:00
Search period end: 14 July 2022 00:00
Orbit: 523 x 536 km, 43.0° (Epoch: 03 July)

Date Brightness Start Highest point End Pass type
(mag) Time Alt. Az. Time Alt. Az. Time Alt. Az.
04 Jul ? 01:24:13 34° SW 01:25:32 49° SSE 01:29:27 10° E visible
05 Jul ? 01:11:56 40° SW 01:12:57 52° S 01:16:54 10° E visible
05 Jul ? 02:48:48 10° W 02:52:44 54° S 02:56:42 10° ESE visible
06 Jul ? 00:59:41 47° SSW 01:00:23 55° S 01:04:21 10° E visible
06 Jul ? 02:36:14 10° W 02:40:10 51° S 02:44:06 10° ESE visible
07 Jul ? 00:47:31 55° SSW 00:47:49 57° S 00:51:47 10° E visible
07 Jul ? 02:23:42 10° W 02:27:35 47° SSW 02:31:29 10° ESE visible
08 Jul ? 00:35:28 57° SSE 00:35:28 57° SSE 00:39:13 10° E visible
08 Jul ? 02:11:10 10° W 02:15:00 43° SSW 02:18:50 10° ESE visible
09 Jul ? 00:23:42 43° SE 00:23:42 43° SE 00:26:39 10° E visible
09 Jul ? 01:58:56 12° W 02:02:24 39° SSW 02:06:10 10° SE visible
10 Jul ? 00:12:28 22° ESE 00:12:28 22° ESE 00:14:04 10° ESE visible
10 Jul ? 01:47:45 21° WSW 01:49:47 35° SSW 01:53:29 10° SE visible
10 Jul ? 20:35:32 10° SSW 20:38:04 18° SSE 20:38:04 18° SSE visible
11 Jul ? 01:37:37 30° S 01:37:37 30° S 01:40:45 10° SE visible
11 Jul ? 20:22:36 10° SSW 20:25:39 21° SSE 20:28:16 12° ESE visible
11 Jul ? 22:01:15 10° WSW 22:03:34 30° SW 22:03:34 30° SW visible
12 Jul ? 20:09:43 10° SSW 20:13:00 24° SSE 20:16:17 10° E visible
12 Jul ? 21:48:38 10° WSW 21:52:33 53° S 21:52:33 53° S visible
13 Jul ? 19:56:54 10° SW 20:00:21 28° SSE 20:03:48 10° E visible
13 Jul ? 21:36:01 10° WSW 21:39:57 56° S 21:40:52 44° SE visible
13 Jul ? 23:15:50 10° W 23:16:04 11° W 23:16:04 11° W visible
